Regional Weather Roundup
Issued by NWS

Home | Current Version | Previous Version | Graphics & Text | Print | Product List | Glossary On
Versions: 1 2 3 4 5 6 7 8 9 10 11 12 13 14 15 16 17 18 19 20 21 22 23 24 25 26 27 28 29 30 31 32 33 34 35 36 37 38 39 40 41 42 43 44 45 46 47 48 49 50
000
ASUS43 KDTX 211501
RWRMI
MICHIGAN HOURLY REGIONAL WEATHER ROUNDUP
NATIONAL WEATHER SERVICE DETROIT/PONTIAC MI
1100 AM EDT THU SEP 21 2017

NOTE: "FAIR" INDICATES FEW OR NO CLOUDS BELOW 12,000 FEET WITH NO
SIGNIFICANT WEATHER AND/OR OBSTRUCTION TO VISIBILITY.

MIZ047>049-052>055-059>063-066>070-074>076-081>083-211600-
SOUTHEAST LOWER MICHIGAN

CITY           SKY/WX    TMP DP  RH WIND       PRES   REMARKS
ADRIAN         SUNNY     79  69  71 W5        30.09S
ALMA           SUNNY     78  67  68 CALM      30.06S
ANN ARBOR      SUNNY     78  70  76 S6        30.08S
BAD AXE        SUNNY     79  66  64 S12       30.08S
CARO           SUNNY     81  68  64 S8        30.05F
DETROIT CITY   MOSUNNY   79  70  74 MISG      30.09R
DETROIT        PTSUNNY   79  71  76 S5        30.09S
FLINT          SUNNY     80  68  66 S8        30.07R
GROSSE ILE     MOSUNNY   76  70  80 S5        30.08S
HILLSDALE      PTSUNNY   81  70  69 CALM      30.09S
HOWELL         SUNNY     80  69  70 CALM      30.08R

CITY           SKY/WX    TMP DP  RH WIND       PRES   REMARKS
JACKSON        SUNNY     82  69  64 S7        30.08R
LAMBERTVILLE   SUNNY     81  70  69 S3        30.08S
LANSING        MOSUNNY   84  69  60 S8        30.06S
LAPEER         FAIR      81  68  64 S7        30.08S
MASON          SUNNY     83  70  63 CALM      30.07S
MONROE         PTSUNNY   80  70  71 CALM      30.08R
MT. CLEMENS    MOSUNNY   76  74  93 SE5       30.08R
PONTIAC        MOSUNNY   78  70  76 S8        30.08S
PORT HURON     SUNNY     79  68  69 S6        30.09S
TRI CITIES     SUNNY     77  70  79 SW5       30.06F
MIDLAND        FAIR      77  67  71 S3        30.05S
TROY           SUNNY     79  70  73 S5        30.10F
SAGINAW HB     SUNNY     79  68  69 S7        30.05F
$$
MIZ043>046-050>051-056>058-064>065-071>073-077>080-211600-
SOUTHWEST LOWER MICHIGAN

CITY           SKY/WX    TMP DP  RH WIND       PRES   REMARKS
BATTLE CREEK   SUNNY     82  71  69 SW12      30.08R
BENTON HARBOR  SUNNY     81  70  69 S8        30.03S
BIG RAPIDS     MOSUNNY   76  67  73 SE3       30.05R
COLDWATER      SUNNY     82  73  73 S5        30.08S
FREMONT        FAIR      79  70  74 SW5       30.03S
HOLLAND        SUNNY     82  69  64 W7        30.04R
GRAND RAPIDS   PTSUNNY   82  70  66 SW5       30.04S
IONIA          FAIR      81  68  64 CALM      30.05R
KALAMAZOO      SUNNY     80  69  69 S9        30.06R
LUDINGTON      MOSUNNY   77  66  68 CALM      30.01S
MARSHALL       SUNNY     81  71  72 S7        30.07R
MOUNT PLEASANT SUNNY     78  67  69 CALM      30.04F
MUSKEGON       PTSUNNY   81  69  67 S10       30.03R
SOUTH HAVEN    SUNNY     82  71  70 SE5       30.03F
$$
MIZ016>042-211600-
NORTHERN LOWER MICHIGAN

CITY           SKY/WX    TMP DP  RH WIND       PRES   REMARKS
ALPENA         CLOUDY    75  69  81 S8        30.04S
BEAVER ISLAND  SUNNY     71  66  86 NW7       30.03R
BELLAIRE       SUNNY     77  66  69 S3        30.02S
CADILLAC       MOSUNNY   79  66  64 CALM      30.05S
CHARLEVOIX     SUNNY     78  68  71 NW3       30.04S
FRANKFORT      SUNNY     78  68  72 CALM      30.02S
GAYLORD        SUNNY     77  66  68 VRB5      30.04F
GRAYLING       CLOUDY    78  65  66 S3        30.05S
HARBOR SPRINGS SUNNY     77  67  71 W6        30.01S
HOUGHTON LAKE  MOSUNNY   77  67  71 W5        30.06R
MANISTEE       SUNNY     78  68  71 CALM      30.02R
OSCODA         SUNNY     78  65  64 SW12G18   30.05S
PELLSTON       SUNNY     79  69  71 W6        30.02R
ROGERS CITY    CLOUDY    73  67  82 SW5       30.04R
TRAVERSE CITY  MOSUNNY   79  66  64 CALM      30.00S
$$
MIZ007>008-015-211600-
EASTERN UPPER MICHIGAN

CITY           SKY/WX    TMP DP  RH WIND       PRES   REMARKS
KINROSS        PTSUNNY   69  67  93 E6        30.04S
MACKINAC ISLAN MOSUNNY   72  67  85 NE6       30.03R
NEWBERRY       CLOUDY    69  68  97 N3        30.03S
S. S. MARIE    CLOUDY    71  67  87 NE5       30.04S
MUNISING         N/A     66  64  93 NE5       30.05S
$$
MIZ004>006-011>014-085-211600-
CENTRAL UPPER MICHIGAN

CITY           SKY/WX    TMP DP  RH WIND       PRES   REMARKS
MANISTIQUE     SUNNY     73  66  81 N7        30.02S
ESCANABA       MOSUNNY   69  64  84 NW6       30.04R
MENOMINEE      CLOUDY    70  64  81 NE7       30.04
SAWYER-GWINN   PTSUNNY   64  54  68 NE5       30.07S
$$
MIZ001>003-009>011-084-211600-
WESTERN UPPER MICHIGAN

CITY           SKY/WX    TMP DP  RH WIND       PRES   REMARKS
IRON MOUNTAIN  MOSUNNY   67  57  70 E5        30.05F
HOUGHTON       SUNNY     64  55  72 SE10      30.07S
COPPER HARBOR    N/A     59  56  89 CALM      30.06S
IRONWOOD       SUNNY     64  56  75 E8        30.04F
$$

ABBREVIATIONS USED IN REMARKS
   TC - TEMPERATURE IN CELSIUS
  WCI - WIND CHILL INDEX
   HX - HEAT INDEX
  VSB - VISIBILITY





USA.gov is the U.S. government's official web portal to all federal, state and local government web resources and services.